SAS1221 EKCH-EKYT

Flight info

Callsign SAS1221
Flight time 0h 32m
Altitude 18000
Route GOLGA T506 LAPMA L621 AAL
Aircraft A20N/M-SDE3FGIJ1RWXY/ALB1

Departure

Time 2026-05-05 09:41
Airport Copenhagen Kastrup Airport (EKCH)

Arrival

Time 2026-05-05 10:13
Airport Aalborg Airport (EKYT)
Time Latitude Longitude Altitude Speed Heading
2026-05-05 09:24 55.62510 12.65683 17 ft 0 kts
2026-05-05 09:33 55.62505 12.65682 17 ft 2 kts
2026-05-05 09:34 55.62488 12.65681 19 ft 2 kts 360°
2026-05-05 09:34 55.62472 12.65682 18 ft 2 kts 354°
2026-05-05 09:34 55.62456 12.65687 19 ft 2 kts 333°
2026-05-05 09:34 55.62446 12.65708 20 ft 1 kts 269°
2026-05-05 09:35 55.62446 12.65714 20 ft 0 kts 269°
2026-05-05 09:36 55.62446 12.65675 20 ft 13 kts 269°
2026-05-05 09:36 55.62442 12.65474 17 ft 17 kts 269°
2026-05-05 09:37 55.62438 12.65267 18 ft 15 kts 270°
2026-05-05 09:37 55.62408 12.65198 19 ft 14 kts 191°
2026-05-05 09:37 55.62292 12.65173 21 ft 17 kts 216°
2026-05-05 09:37 55.62302 12.65003 24 ft 15 kts 304°
2026-05-05 09:38 55.62351 12.64850 24 ft 14 kts 279°
2026-05-05 09:38 55.62320 12.64674 21 ft 18 kts 248°
2026-05-05 09:38 55.62263 12.64463 19 ft 18 kts 244°
2026-05-05 09:38 55.62176 12.64338 15 ft 17 kts 198°
2026-05-05 09:39 55.62068 12.64241 18 ft 18 kts 207°
2026-05-05 09:39 55.61949 12.64140 25 ft 19 kts 205°
2026-05-05 09:39 55.61824 12.64073 26 ft 19 kts 176°
2026-05-05 09:39 55.61680 12.64084 27 ft 22 kts 180°
2026-05-05 09:40 55.61544 12.63943 26 ft 30 kts 221°
2026-05-05 09:40 55.61198 12.63408 28 ft 100 kts 221°
2026-05-05 09:40 55.60528 12.62373 27 ft 153 kts 220°
2026-05-05 09:40 55.59657 12.61031 337 ft 168 kts 222°
2026-05-05 09:41 55.58756 12.59670 1045 ft 172 kts 222°
2026-05-05 09:41 55.57839 12.58323 1784 ft 173 kts 221°
2026-05-05 09:41 55.56879 12.56876 2082 ft 194 kts 224°
2026-05-05 09:41 55.55962 12.55006 2384 ft 212 kts 246°
2026-05-05 09:42 55.55631 12.52342 2703 ft 235 kts 272°
2026-05-05 09:42 55.55869 12.49331 3141 ft 262 kts 283°
2026-05-05 09:42 55.56580 12.46459 4361 ft 255 kts 306°
2026-05-05 09:42 55.57946 12.44446 5479 ft 264 kts 329°
2026-05-05 09:43 55.59639 12.42984 6396 ft 270 kts 330°
2026-05-05 09:43 55.61286 12.41456 7680 ft 264 kts 328°
2026-05-05 09:43 55.62915 12.39887 8677 ft 272 kts 326°
2026-05-05 09:43 55.64582 12.38226 9660 ft 278 kts 326°
2026-05-05 09:44 55.66288 12.36519 10490 ft 289 kts 325°
2026-05-05 09:44 55.68087 12.34721 11048 ft 307 kts 326°
2026-05-05 09:44 55.70014 12.32778 11438 ft 331 kts 326°
2026-05-05 09:44 55.72066 12.30730 12007 ft 345 kts 326°
2026-05-05 09:45 55.74157 12.28649 12985 ft 345 kts 326°
2026-05-05 09:45 55.76273 12.26591 13941 ft 347 kts 326°
2026-05-05 09:45 55.78398 12.24542 14864 ft 347 kts 326°
2026-05-05 09:45 55.80514 12.22458 15667 ft 352 kts 326°
2026-05-05 09:46 55.82674 12.20309 16346 ft 359 kts 325°
2026-05-05 09:46 55.84852 12.18083 17072 ft 364 kts 324°
2026-05-05 09:46 55.87065 12.15840 17576 ft 367 kts 325°
2026-05-05 09:46 55.89294 12.13660 17704 ft 365 kts 326°
2026-05-05 09:47 55.91532 12.11488 17832 ft 366 kts 326°
2026-05-05 09:47 55.93769 12.09300 17950 ft 367 kts 325°
2026-05-05 09:47 55.96012 12.07085 17972 ft 367 kts 325°
2026-05-05 09:47 55.98247 12.04866 17972 ft 367 kts 325°
2026-05-05 09:48 56.00475 12.02643 17974 ft 367 kts 325°
2026-05-05 09:48 56.02674 12.00445 17973 ft 367 kts 325°
2026-05-05 09:48 56.04901 11.98215 17979 ft 367 kts 325°
2026-05-05 09:48 56.07126 11.95976 17977 ft 366 kts 324°
2026-05-05 09:49 56.09321 11.93644 17977 ft 365 kts 323°
2026-05-05 09:49 56.11481 11.91273 17977 ft 365 kts 322°
2026-05-05 09:49 56.12943 11.89660 17975 ft 365 kts 322°
2026-05-05 09:49 56.15802 11.86514 17790 ft 364 kts 322°
2026-05-05 09:50 56.17266 11.84909 17435 ft 365 kts 323°
2026-05-05 09:50 56.19443 11.82522 16650 ft 369 kts 323°
2026-05-05 09:50 56.21652 11.80102 15824 ft 372 kts 323°
2026-05-05 09:50 56.23816 11.77740 15342 ft 365 kts 323°
2026-05-05 09:51 56.25972 11.75384 14804 ft 359 kts 323°
2026-05-05 09:51 56.28092 11.73063 14265 ft 354 kts 323°
2026-05-05 09:51 56.30182 11.70768 13742 ft 350 kts 323°
2026-05-05 09:51 56.32248 11.68496 13185 ft 345 kts 323°
2026-05-05 09:52 56.34278 11.66260 12679 ft 339 kts 323°
2026-05-05 09:52 56.36274 11.64059 12180 ft 334 kts 323°
2026-05-05 09:52 56.38243 11.61884 11679 ft 329 kts 323°
2026-05-05 09:52 56.40181 11.59739 11188 ft 325 kts 323°
2026-05-05 09:53 56.42101 11.57613 10703 ft 321 kts 323°
2026-05-05 09:53 56.43993 11.55515 10294 ft 316 kts 323°
2026-05-05 09:53 56.45821 11.53491 10160 ft 301 kts 323°
2026-05-05 09:53 56.47567 11.51559 10042 ft 287 kts 323°
2026-05-05 09:54 56.49235 11.49709 9827 ft 277 kts 323°
2026-05-05 09:54 56.50841 11.47915 9472 ft 272 kts 323°
2026-05-05 09:54 56.52423 11.46146 9277 ft 266 kts 323°
2026-05-05 09:54 56.53996 11.44382 8931 ft 265 kts 323°
2026-05-05 09:55 56.55559 11.42629 8579 ft 263 kts 323°
2026-05-05 09:55 56.57102 11.40900 8229 ft 259 kts 324°
2026-05-05 09:55 56.58629 11.39189 7881 ft 256 kts 324°
2026-05-05 09:55 56.60138 11.37498 7533 ft 253 kts 324°
2026-05-05 09:56 56.61617 11.35805 7196 ft 249 kts 321°
2026-05-05 09:56 56.62928 11.33806 6882 ft 244 kts 312°
2026-05-05 09:56 56.64025 11.31439 6842 ft 254 kts 306°
2026-05-05 09:56 56.65119 11.28872 6966 ft 256 kts 306°
2026-05-05 09:57 56.66210 11.26359 6975 ft 252 kts 307°
2026-05-05 09:57 56.67301 11.23857 6972 ft 253 kts 307°
2026-05-05 09:57 56.68391 11.21350 6962 ft 252 kts 307°
2026-05-05 09:57 56.69461 11.18882 6715 ft 253 kts 307°
2026-05-05 09:58 56.70554 11.16352 6309 ft 254 kts 307°
2026-05-05 09:58 56.71637 11.13840 6072 ft 247 kts 307°
2026-05-05 09:58 56.72708 11.11358 5969 ft 252 kts 307°
2026-05-05 09:58 56.73786 11.08857 5861 ft 250 kts 307°
2026-05-05 09:59 56.74861 11.06360 5748 ft 250 kts 307°
2026-05-05 09:59 56.75934 11.03865 5637 ft 250 kts 307°
2026-05-05 09:59 56.77007 11.01365 5529 ft 250 kts 307°
2026-05-05 09:59 56.78081 10.98862 5421 ft 250 kts 307°
2026-05-05 10:00 56.79138 10.96394 5303 ft 250 kts 307°
2026-05-05 10:00 56.80208 10.93896 5197 ft 250 kts 307°
2026-05-05 10:00 56.81280 10.91389 5086 ft 250 kts 307°
2026-05-05 10:00 56.82352 10.88878 4982 ft 250 kts 307°
2026-05-05 10:01 56.83420 10.86375 4868 ft 250 kts 308°
2026-05-05 10:01 56.84491 10.83863 4759 ft 250 kts 308°
2026-05-05 10:01 56.85560 10.81350 4642 ft 250 kts 308°
2026-05-05 10:01 56.86617 10.78866 4539 ft 250 kts 308°
2026-05-05 10:02 56.87685 10.76351 4426 ft 250 kts 308°
2026-05-05 10:02 56.88752 10.73836 4318 ft 250 kts 308°
2026-05-05 10:02 56.89815 10.71328 4200 ft 250 kts 308°
2026-05-05 10:02 56.90881 10.68812 4091 ft 250 kts 308°
2026-05-05 10:03 56.91945 10.66295 3981 ft 250 kts 308°
2026-05-05 10:03 56.93007 10.63782 3869 ft 249 kts 308°
2026-05-05 10:03 56.94071 10.61262 3759 ft 250 kts 308°
2026-05-05 10:03 56.95133 10.58744 3654 ft 250 kts 308°
2026-05-05 10:04 56.96193 10.56228 3535 ft 249 kts 308°
2026-05-05 10:04 56.97252 10.53709 3425 ft 250 kts 308°
2026-05-05 10:04 56.98300 10.51216 3320 ft 249 kts 308°
2026-05-05 10:04 56.99358 10.48695 3215 ft 250 kts 308°
2026-05-05 10:05 57.00418 10.46166 3095 ft 250 kts 308°
2026-05-05 10:05 57.01477 10.43640 2993 ft 248 kts 308°
2026-05-05 10:05 57.02507 10.41182 2917 ft 238 kts 308°
2026-05-05 10:05 57.03488 10.38834 2772 ft 224 kts 308°
2026-05-05 10:06 57.04416 10.36611 2472 ft 218 kts 308°
2026-05-05 10:06 57.05330 10.34422 2355 ft 212 kts 308°
2026-05-05 10:06 57.06224 10.32252 2327 ft 215 kts 307°
2026-05-05 10:06 57.07123 10.30077 2235 ft 210 kts 308°
2026-05-05 10:07 57.07999 10.27980 2181 ft 203 kts 307°
2026-05-05 10:07 57.08850 10.25951 2103 ft 196 kts 308°
2026-05-05 10:07 57.09632 10.24051 2043 ft 177 kts 307°
2026-05-05 10:07 57.10358 10.22316 1995 ft 166 kts 308°
2026-05-05 10:08 57.11010 10.20758 2009 ft 148 kts 305°
2026-05-05 10:08 57.11455 10.18986 1975 ft 158 kts 284°
2026-05-05 10:08 57.11544 10.17013 1972 ft 154 kts 269°
2026-05-05 10:08 57.11444 10.15193 2016 ft 135 kts 264°
2026-05-05 10:09 57.11322 10.13507 2012 ft 135 kts 264°
2026-05-05 10:09 57.11168 10.11738 2030 ft 141 kts 263°
2026-05-05 10:09 57.11013 10.09976 1971 ft 137 kts 263°
2026-05-05 10:09 57.10875 10.08259 1945 ft 133 kts 264°
2026-05-05 10:10 57.10786 10.06522 2049 ft 140 kts 266°
2026-05-05 10:10 57.10699 10.04756 1986 ft 138 kts 267°
2026-05-05 10:10 57.10613 10.02988 1797 ft 140 kts 266°
2026-05-05 10:10 57.10507 10.01237 1635 ft 132 kts 266°
2026-05-05 10:11 57.10399 9.99587 1339 ft 131 kts 265°
2026-05-05 10:11 57.10294 9.97905 1109 ft 129 kts 265°
2026-05-05 10:11 57.10184 9.96303 918 ft 125 kts 265°
2026-05-05 10:11 57.10078 9.94741 799 ft 122 kts 265°
2026-05-05 10:12 57.09987 9.93188 682 ft 125 kts 266°
2026-05-05 10:12 57.09884 9.91591 487 ft 125 kts 265°
2026-05-05 10:12 57.09786 9.90029 322 ft 123 kts 266°
2026-05-05 10:12 57.09695 9.88459 137 ft 125 kts 265°
2026-05-05 10:13 57.09598 9.86896 18 ft 116 kts 264°
2026-05-05 10:13 57.09528 9.85775 18 ft 59 kts 263°
2026-05-05 10:13 57.09497 9.85306 15 ft 30 kts 263°
2026-05-05 10:13 57.09475 9.84930 18 ft 28 kts 264°
2026-05-05 10:14 57.09454 9.84582 19 ft 27 kts 259°
2026-05-05 10:14 57.09427 9.84304 19 ft 4 kts 238°
2026-05-05 10:14 57.09399 9.84292 17 ft 7 kts 176°
2026-05-05 10:14 57.09352 9.84363 17 ft 19 kts 141°
2026-05-05 10:15 57.09264 9.84531 17 ft 19 kts 108°
2026-05-05 10:15 57.09272 9.84795 18 ft 23 kts 83°
2026-05-05 10:15 57.09287 9.85059 17 ft 20 kts 84°
2026-05-05 10:15 57.09305 9.85336 17 ft 24 kts 83°
2026-05-05 10:16 57.09324 9.85650 18 ft 26 kts 84°
2026-05-05 10:16 57.09337 9.85872 17 ft 14 kts 96°
2026-05-05 10:16 57.09265 9.86002 17 ft 16 kts 142°
2026-05-05 10:16 57.09167 9.86144 17 ft 20 kts 142°
2026-05-05 10:17 57.09049 9.86308 18 ft 23 kts 145°
2026-05-05 10:17 57.08920 9.86487 18 ft 16 kts 141°
2026-05-05 10:17 57.08821 9.86632 18 ft 19 kts 140°
2026-05-05 10:17 57.08742 9.86770 18 ft 14 kts 115°
2026-05-05 10:18 57.08767 9.86889 18 ft 6 kts 43°
2026-05-05 10:18 57.08770 9.86894 18 ft 0 kts 39°